SCP
-0 0 0 0 1 0 0 0 0 0 0 0 0 0 0 0 0 0 0 0 0 0 0 0 0 0 0 0 0 0 0 0 0 0 0 0 0 0 0 0 0 -0 -0
0 0 1 1 1 0 0 0 0 0 0 0 0 0 0 0 0 0 0 0 0 0 0 0 0 0 0 0 0 0 0 0 0 1 0 0 0 0 0 1 0 0 0
0 0 1 1 1 0 0 0 0 0 0 0 0 0 0 0 0 0 0 0 0 0 0 0 0 0 0 0 0 0 0 0 0 1 0 0 0 0 0 1 0 0 0
0 0 1 1 1 1 1 1 1 1 0 0 0 0 0 0 0 0 0 0 0 0 0 0 0 0 0 0 0 0 0 0 0 1 0 0 0 0 0 0 0 0 0
0 0 0 1 1 1 1 1 1 1 1 0 0 0 0 0 0 0 0 0 0 0 0 0 0 0 0 0 0 0 0 0 0 1 1 0 0 0 0 0 0 0 0
0 0 0 1 1 2 1 1 1 1 1 1 0 0 0 0 0 0 0 0 0 0 0 0 0 0 0 0 0 0 0 0 0 1 1 0 0 0 0 0 0 0 0
0 0 1 1 1 2 1 1 1 1 1 1 1 0 0 0 0 0 0 0 0 0 0 0 0 0 0 0 0 0 0 0 0 1 0 0 0 0 0 1 0 0 0
1 1 2 1 1 1 1 1 1 1 1 0 0 0 0 0 0 0 0 0 0 0 0 0 0 0 0 0 0 0 0 0 0 0 0 0 0 0 0 0 1 1 1
0 1 1 1 1 1 1 1 1 1 0 0 0 0 0 0 0 0 0 0 0 0 0 0 0 0 0 0 0 0 0 0 0 0 0 0 0 0 0 0 1 1 1
0 0 0 1 1 1 1 1 1 0 0 0 0 0 0 0 0 0 0 0 0 0 0 0 0 0 0 0 0 0 0 0 0 0 0 1 0 0 0 0 0 1 0
0 0 0 0 0 0 0 0 0 0 0 0 0 0 0 0 0 0 0 0 0 0 -0 0 0 0 0 0 0 0 0 0 0 0 0 1 1 0 0 0 1 1 1
0 0 0 0 0 0 0 0 0 0 0 0 0 0 0 0 0 0 0 0 0 0 0 -0 0 0 0 0 0 0 0 0 0 0 0 1 1 0 0 0 0 0 0
0 0 0 0 0 0 0 0 0 0 0 0 0 0 0 0 0 0 0 0 0 0 0 0 0 0 0 0 0 0 0 0 0 0 0 1 0 0 0 0 0 0 0
0 0 0 0 0 0 0 0 0 0 0 0 0 0 0 0 0 0 0 0 0 0 0 0 0 0 0 0 0 0 0 0 0 0 0 0 0 0 0 0 0 0 0
0 0 0 0 0 0 0 0 0 0 0 0 0 0 0 0 0 0 0 0 0 0 0 0 0 0 0 0 0 0 0 0 0 0 0 0 0 0 0 0 0 0 0
0 0 0 0 0 0 0 0 0 0 0 0 0 0 0 0 0 0 0 0 0 0 0 0 0 0 0 0 0 0 0 0 0 0 0 0 0 0 0 0 0 0 0
0 0 0 0 0 0 0 0 0 0 0 0 0 0 0 0 0 0 0 0 0 0 0 0 0 0 0 0 0 0 0 0 0 0 0 0 0 0 0 0 0 0 0
0 0 0 0 0 0 0 0 0 0 0 0 0 0 0 0 0 0 0 0 0 0 0 0 0 0 0 0 0 0 0 0 0 0 0 0 0 0 0 0 0 0 -0
0 0 0 0 0 0 0 0 0 0 0 0 0 0 0 0 0 0 0 0 0 0 0 0 0 0 0 0 0 0 0 0 0 0 0 0 0 0 0 0 0 0 0
0 0 0 0 0 0 0 0 0 0 0 0 0 0 0 0 0 0 0 0 0 0 0 0 0 0 0 0 0 0 0 0 0 0 0 0 0 0 0 0 0 0 -0
0 0 0 0 0 0 0 0 0 0 0 0 0 0 0 0 0 0 0 0 0 0 0 0 0 0 0 0 0 0 0 0 0 0 0 0 0 0 0 0 0 0 0
0 0 0 0 0 0 0 0 0 0 0 0 0 0 0 0 0 0 0 0 0 -0 -0 0 0 0 0 0 0 0 0 0 0 0 0 0 0 0 0 0 0 0 0
0 0 0 0 0 0 0 0 0 0 0 0 0 0 0 0 0 0 -0 0 -0 -0 0 0 0 0 0 0 0 0 0 0 0 0 0 0 0 0 0 0 0 0 0
0 0 0 0 0 0 0 0 0 0 0 0 0 0 0 0 0 -0 0 0 -0 0 0 0 0 0 0 0 0 0 0 0 0 0 0 0 0 0 0 0 0 0 0
0 0 0 0 0 0 0 0 0 0 0 0 0 0 0 0 0 -0 0 -0 0 0 0 0 0 0 0 0 0 0 0 0 0 0 0 0 0 0 0 0 0 0 0
0 0 0 0 0 0 0 0 0 0 0 0 0 0 0 0 0 0 -0 0 0 0 0 0 0 0 0 0 0 0 0 0 0 0 0 0 0 0 0 0 0 0 0
Wind_Speed_500mb
34 37 21 17 18 15 12 9 10 11 13 14 14 14 16 19 19 21 23 23 21 17 22 22 27 27 29 32 37 42 42 42 39 37 38 42 36 28 26 27 24 21 19
21 33 27 22 15 12 12 12 15 17 19 19 18 18 19 20 18 21 24 26 25 25 19 26 25 29 29 30 32 38 43 42 40 36 39 38 36 40 33 30 30 29 29
24 29 27 19 13 14 15 16 19 23 24 24 24 24 21 22 22 21 25 26 26 27 26 22 28 29 32 31 29 33 40 41 39 39 42 43 41 38 36 33 30 36 39
22 20 18 17 15 15 17 21 24 27 28 28 29 25 26 32 32 27 29 30 29 29 30 29 24 29 31 34 31 31 36 38 38 36 43 45 48 42 34 32 37 39 44
19 9 12 15 14 14 19 24 28 31 33 32 31 33 37 38 37 36 33 34 36 34 33 33 32 27 32 33 37 30 29 32 36 35 38 46 48 53 38 32 39 45 44
17 10 13 15 15 18 23 29 32 34 34 34 38 38 42 45 43 41 40 39 38 40 40 37 37 35 32 35 35 29 30 31 33 36 34 39 50 51 47 42 38 48 47
20 19 23 21 20 22 24 27 28 30 34 38 42 45 47 47 45 44 46 45 43 42 42 40 41 43 36 37 35 34 37 34 33 36 33 36 44 51 54 47 43 49 54
24 21 27 23 22 22 27 28 26 26 25 30 35 41 44 48 52 54 51 49 50 52 48 48 47 45 42 37 38 38 38 36 34 37 33 34 39 47 53 53 51 55 58
22 27 26 22 21 24 28 29 30 32 29 28 32 39 42 45 51 54 54 54 53 52 52 53 50 49 47 43 44 42 38 39 37 36 34 35 35 42 51 57 57 60 61
19 26 28 21 22 27 30 31 31 33 29 29 32 36 32 33 30 31 33 38 41 44 46 47 48 52 50 46 47 43 41 35 37 38 34 35 36 38 48 56 62 66 65
29 26 21 24 26 26 25 30 36 31 31 33 37 33 40 37 28 27 27 29 28 33 31 38 42 48 48 47 45 47 41 38 38 40 38 36 37 36 43 57 65 70 71
30 29 30 30 24 22 27 32 31 31 34 34 33 31 36 22 24 22 24 23 29 28 32 35 42 44 47 48 43 45 41 36 38 41 43 37 35 35 43 58 72 82 74
36 40 38 31 23 23 30 30 26 29 34 34 29 35 30 23 21 20 22 22 26 29 30 29 37 42 44 48 41 40 39 32 35 43 45 38 35 39 50 56 69 75 76
49 52 46 36 27 23 27 21 19 22 22 25 31 33 25 21 20 22 21 22 23 20 22 26 33 37 42 40 33 34 34 31 35 43 46 39 35 42 55 64 75 82 85
51 54 44 35 25 23 22 12 16 18 17 20 22 27 31 29 27 22 23 28 26 24 23 23 30 37 39 35 30 35 33 28 34 41 43 38 37 48 63 65 77 85 74
55 55 44 29 21 22 14 11 17 18 18 21 22 25 32 35 32 26 24 25 25 28 26 25 26 34 39 37 32 39 35 28 35 39 40 39 38 49 56 57 69 75 77
56 48 35 24 21 16 8 9 16 21 24 28 26 25 28 32 32 32 29 26 22 24 28 31 29 33 35 41 36 45 33 33 38 38 36 40 37 51 55 54 66 74 82
58 47 30 23 16 14 7 12 19 24 29 32 30 27 26 29 30 31 30 26 23 25 26 34 34 33 35 39 41 47 34 34 41 39 40 39 41 52 50 53 64 67 70
58 42 28 20 10 8 6 9 19 25 29 28 27 26 24 23 23 27 23 22 23 22 26 33 38 37 35 37 43 39 34 38 39 42 46 42 41 50 50 55 60 62 71
50 34 24 16 7 6 5 10 17 26 28 27 24 20 19 18 21 23 17 19 21 19 21 33 44 38 37 37 36 38 33 36 38 38 40 42 40 45 57 64 68 66 80
42 30 25 16 11 10 8 13 20 31 32 30 21 21 21 18 19 19 18 19 16 12 14 27 32 39 38 30 34 35 35 38 33 36 36 37 42 47 52 63 74 69 71
40 29 24 16 10 7 6 14 22 28 27 30 17 16 19 25 13 18 15 14 10 8 20 27 31 36 34 32 38 37 31 30 29 32 39 43 42 43 56 71 81 77 81
36 29 24 15 10 5 9 11 19 17 23 27 17 12 19 17 8 16 16 14 13 12 18 23 32 35 33 36 32 37 20 13 37 35 44 50 45 48 49 57 70 73 72
33 29 23 17 10 12 6 9 16 23 29 27 11 12 8 4 12 14 15 18 15 15 20 23 32 35 33 35 35 34 27 36 35 36 54 54 52 50 52 50 63 76 64
33 31 24 18 10 11 10 9 17 23 21 15 5 6 5 4 12 18 20 21 22 19 18 19 29 28 31 35 40 34 27 33 44 34 55 58 52 49 54 61 67 74 70
33 30 26 19 9 5 9 4 18 16 16 14 8 7 9 9 15 25 25 28 23 23 19 18 21 30 25 37 34 32 31 49 43 65 61 64 64 52 59 62 63 73 74
Wind_Direction_500mb
188 184 185 204 205 215 218 229 262 268 266 267 263 262 264 275 287 292 294 294 288 267 259 252 234 229 230 231 230 226 225 226 226 221 223 219 214 211 191 185 200 191 182
173 186 203 201 205 230 248 272 277 271 269 270 265 256 252 246 260 274 274 278 283 286 270 259 253 234 231 232 233 231 229 227 228 228 223 214 214 211 210 200 207 192 175
186 193 206 209 244 255 256 282 284 282 274 275 275 277 274 262 266 268 269 270 274 283 279 265 250 250 236 235 236 236 234 228 228 228 223 222 213 217 217 206 211 197 199
191 200 221 231 241 256 271 290 287 283 280 280 274 273 267 274 281 273 262 260 263 273 272 272 256 245 248 240 242 238 238 230 226 226 224 221 218 218 212 212 206 193 186
189 231 242 237 231 243 268 274 275 275 275 273 267 266 277 279 279 277 266 262 265 263 262 266 269 255 245 244 241 238 248 236 223 226 224 222 224 221 216 211 207 196 191
204 218 226 227 236 253 275 284 282 275 271 271 270 269 276 278 276 272 270 268 264 263 262 255 263 264 249 246 236 239 240 238 226 223 229 222 222 227 223 220 215 199 196
206 203 212 234 253 283 287 289 290 283 278 271 268 270 275 275 276 268 268 268 268 264 261 253 250 250 248 242 232 234 232 235 230 222 227 226 223 222 227 216 212 207 198
219 213 221 245 256 269 291 296 302 294 284 279 274 272 271 270 267 265 266 265 264 262 256 250 250 249 242 238 231 232 232 233 230 221 225 224 224 220 223 214 209 209 205
226 230 235 248 249 290 298 302 304 311 294 283 281 286 284 278 269 265 266 263 261 257 252 249 244 244 242 235 235 229 231 232 228 220 223 220 219 218 221 213 206 205 198
222 234 238 244 267 283 296 303 300 302 291 291 296 301 299 294 285 271 265 260 259 257 255 250 244 237 235 232 234 231 232 232 225 216 220 219 218 219 217 209 203 196 190
222 236 244 243 254 280 280 289 298 288 283 294 310 312 312 298 290 281 271 255 256 260 252 245 236 235 229 228 233 229 231 232 225 215 215 216 219 218 213 207 195 192 186
222 231 233 232 260 269 283 293 299 290 291 299 303 303 304 297 295 283 273 259 257 262 256 245 233 229 225 225 231 227 228 228 225 215 214 216 220 216 213 205 196 191 188
217 217 218 231 240 276 301 303 302 288 285 284 289 295 293 293 301 281 276 257 254 257 259 244 230 223 222 222 232 226 221 220 222 215 214 216 220 216 207 197 193 184 180
217 209 205 214 248 282 305 307 318 308 301 294 287 288 276 278 288 285 271 268 258 258 255 243 232 221 217 221 223 217 214 213 216 213 215 217 217 205 198 199 194 188 185
215 205 212 234 262 300 305 302 326 346 319 312 287 278 279 285 275 286 279 266 265 265 258 243 229 220 217 216 218 208 203 209 213 208 217 218 215 206 196 199 195 192 191
208 215 222 236 263 298 320 324 323 323 322 318 307 286 279 279 275 275 287 274 261 267 251 237 221 215 220 216 217 200 204 207 207 209 211 218 216 204 196 194 199 195 191
219 217 222 239 262 305 330 317 336 337 324 313 312 299 286 281 273 272 280 272 266 268 248 230 218 218 222 214 214 199 208 209 209 216 214 217 213 203 200 202 199 199 193
216 212 222 240 272 309 311 325 331 319 317 311 302 296 290 278 273 267 265 261 266 265 246 229 219 215 215 211 201 202 211 215 214 223 214 217 213 200 201 198 194 196 190
216 214 226 232 261 299 288 313 317 323 314 307 292 292 285 277 274 265 249 256 267 264 244 229 218 213 209 207 198 205 210 215 214 221 215 212 205 190 187 186 188 184 169
209 215 219 212 234 223 218 269 297 319 326 324 305 297 296 290 272 260 247 261 265 262 248 216 210 213 206 210 208 206 217 213 224 208 206 205 203 200 188 183 175 178 162
206 209 201 205 192 189 213 274 300 309 323 327 306 292 289 301 281 252 233 245 260 252 220 194 199 201 200 204 206 204 204 204 205 194 201 206 190 196 195 194 176 170 163
203 195 195 194 185 171 273 267 300 306 322 331 307 302 302 295 270 248 225 238 216 198 180 183 190 193 200 198 190 173 163 190 196 201 200 194 186 188 191 183 170 171 168
192 193 193 185 175 185 218 281 309 316 330 332 314 297 313 295 255 185 206 197 180 169 174 177 180 188 195 189 199 179 150 176 182 198 193 190 185 179 172 170 175 172 164
188 185 179 184 178 215 232 295 328 335 336 333 314 309 327 318 166 178 178 168 166 161 171 187 195 190 196 194 183 200 201 194 170 161 188 182 176 180 179 176 171 170 158
184 180 179 182 210 238 251 329 340 334 350 350 347 347 16 141 165 164 158 151 152 157 159 173 178 190 196 193 192 195 206 193 181 164 143 163 167 168 172 170 169 170 166
178 176 180 189 212 249 193 265 319 336 6 11 359 327 354 185 173 166 165 161 152 153 148 161 190 185 195 190 188 205 214 186 191 150 150 156 165 174 178 177 170 170 167
Wind_Speed_850mb
34 37 21 17 18 15 12 9 10 11 13 14 14 14 16 19 19 21 23 23 21 17 22 22 27 27 29 32 37 42 42 42 39 37 38 42 36 28 26 27 24 21 19
21 33 27 22 15 12 12 12 15 17 19 19 18 18 19 20 18 21 24 26 25 25 19 26 25 29 29 30 32 38 43 42 40 36 39 38 36 40 33 30 30 29 29
24 29 27 19 13 14 15 16 19 23 24 24 24 24 21 22 22 21 25 26 26 27 26 22 28 29 32 31 29 33 40 41 39 39 42 43 41 38 36 33 30 36 39
22 20 18 17 15 15 17 21 24 27 28 28 29 25 26 32 32 27 29 30 29 29 30 29 24 29 31 34 31 31 36 38 38 36 43 45 48 42 34 32 37 39 44
19 9 12 15 14 14 19 24 28 31 33 32 31 33 37 38 37 36 33 34 36 34 33 33 32 27 32 33 37 30 29 32 36 35 38 46 48 53 38 32 39 45 44
17 10 13 15 15 18 23 29 32 34 34 34 38 38 42 45 43 41 40 39 38 40 40 37 37 35 32 35 35 29 30 31 33 36 34 39 50 51 47 42 38 48 47
20 19 23 21 20 22 24 27 28 30 34 38 42 45 47 47 45 44 46 45 43 42 42 40 41 43 36 37 35 34 37 34 33 36 33 36 44 51 54 47 43 49 54
24 21 27 23 22 22 27 28 26 26 25 30 35 41 44 48 52 54 51 49 50 52 48 48 47 45 42 37 38 38 38 36 34 37 33 34 39 47 53 53 51 55 58
22 27 26 22 21 24 28 29 30 32 29 28 32 39 42 45 51 54 54 54 53 52 52 53 50 49 47 43 44 42 38 39 37 36 34 35 35 42 51 57 57 60 61
19 26 28 21 22 27 30 31 31 33 29 29 32 36 32 33 30 31 33 38 41 44 46 47 48 52 50 46 47 43 41 35 37 38 34 35 36 38 48 56 62 66 65
29 26 21 24 26 26 25 30 36 31 31 33 37 33 40 37 28 27 27 29 28 33 31 38 42 48 48 47 45 47 41 38 38 40 38 36 37 36 43 57 65 70 71
30 29 30 30 24 22 27 32 31 31 34 34 33 31 36 22 24 22 24 23 29 28 32 35 42 44 47 48 43 45 41 36 38 41 43 37 35 35 43 58 72 82 74
36 40 38 31 23 23 30 30 26 29 34 34 29 35 30 23 21 20 22 22 26 29 30 29 37 42 44 48 41 40 39 32 35 43 45 38 35 39 50 56 69 75 76
49 52 46 36 27 23 27 21 19 22 22 25 31 33 25 21 20 22 21 22 23 20 22 26 33 37 42 40 33 34 34 31 35 43 46 39 35 42 55 64 75 82 85
51 54 44 35 25 23 22 12 16 18 17 20 22 27 31 29 27 22 23 28 26 24 23 23 30 37 39 35 30 35 33 28 34 41 43 38 37 48 63 65 77 85 74
55 55 44 29 21 22 14 11 17 18 18 21 22 25 32 35 32 26 24 25 25 28 26 25 26 34 39 37 32 39 35 28 35 39 40 39 38 49 56 57 69 75 77
56 48 35 24 21 16 8 9 16 21 24 28 26 25 28 32 32 32 29 26 22 24 28 31 29 33 35 41 36 45 33 33 38 38 36 40 37 51 55 54 66 74 82
58 47 30 23 16 14 7 12 19 24 29 32 30 27 26 29 30 31 30 26 23 25 26 34 34 33 35 39 41 47 34 34 41 39 40 39 41 52 50 53 64 67 70
58 42 28 20 10 8 6 9 19 25 29 28 27 26 24 23 23 27 23 22 23 22 26 33 38 37 35 37 43 39 34 38 39 42 46 42 41 50 50 55 60 62 71
50 34 24 16 7 6 5 10 17 26 28 27 24 20 19 18 21 23 17 19 21 19 21 33 44 38 37 37 36 38 33 36 38 38 40 42 40 45 57 64 68 66 80
42 30 25 16 11 10 8 13 20 31 32 30 21 21 21 18 19 19 18 19 16 12 14 27 32 39 38 30 34 35 35 38 33 36 36 37 42 47 52 63 74 69 71
40 29 24 16 10 7 6 14 22 28 27 30 17 16 19 25 13 18 15 14 10 8 20 27 31 36 34 32 38 37 31 30 29 32 39 43 42 43 56 71 81 77 81
36 29 24 15 10 5 9 11 19 17 23 27 17 12 19 17 8 16 16 14 13 12 18 23 32 35 33 36 32 37 20 13 37 35 44 50 45 48 49 57 70 73 72
33 29 23 17 10 12 6 9 16 23 29 27 11 12 8 4 12 14 15 18 15 15 20 23 32 35 33 35 35 34 27 36 35 36 54 54 52 50 52 50 63 76 64
33 31 24 18 10 11 10 9 17 23 21 15 5 6 5 4 12 18 20 21 22 19 18 19 29 28 31 35 40 34 27 33 44 34 55 58 52 49 54 61 67 74 70
33 30 26 19 9 5 9 4 18 16 16 14 8 7 9 9 15 25 25 28 23 23 19 18 21 30 25 37 34 32 31 49 43 65 61 64 64 52 59 62 63 73 74
Wind_Direction_850mb
188 184 185 204 205 215 218 229 262 268 266 267 263 262 264 275 287 292 294 294 288 267 259 252 234 229 230 231 230 226 225 226 226 221 223 219 214 211 191 185 200 191 182
173 186 203 201 205 230 248 272 277 271 269 270 265 256 252 246 260 274 274 278 283 286 270 259 253 234 231 232 233 231 229 227 228 228 223 214 214 211 210 200 207 192 175
186 193 206 209 244 255 256 282 284 282 274 275 275 277 274 262 266 268 269 270 274 283 279 265 250 250 236 235 236 236 234 228 228 228 223 222 213 217 217 206 211 197 199
191 200 221 231 241 256 271 290 287 283 280 280 274 273 267 274 281 273 262 260 263 273 272 272 256 245 248 240 242 238 238 230 226 226 224 221 218 218 212 212 206 193 186
189 231 242 237 231 243 268 274 275 275 275 273 267 266 277 279 279 277 266 262 265 263 262 266 269 255 245 244 241 238 248 236 223 226 224 222 224 221 216 211 207 196 191
204 218 226 227 236 253 275 284 282 275 271 271 270 269 276 278 276 272 270 268 264 263 262 255 263 264 249 246 236 239 240 238 226 223 229 222 222 227 223 220 215 199 196
206 203 212 234 253 283 287 289 290 283 278 271 268 270 275 275 276 268 268 268 268 264 261 253 250 250 248 242 232 234 232 235 230 222 227 226 223 222 227 216 212 207 198
219 213 221 245 256 269 291 296 302 294 284 279 274 272 271 270 267 265 266 265 264 262 256 250 250 249 242 238 231 232 232 233 230 221 225 224 224 220 223 214 209 209 205
226 230 235 248 249 290 298 302 304 311 294 283 281 286 284 278 269 265 266 263 261 257 252 249 244 244 242 235 235 229 231 232 228 220 223 220 219 218 221 213 206 205 198
222 234 238 244 267 283 296 303 300 302 291 291 296 301 299 294 285 271 265 260 259 257 255 250 244 237 235 232 234 231 232 232 225 216 220 219 218 219 217 209 203 196 190
222 236 244 243 254 280 280 289 298 288 283 294 310 312 312 298 290 281 271 255 256 260 252 245 236 235 229 228 233 229 231 232 225 215 215 216 219 218 213 207 195 192 186
222 231 233 232 260 269 283 293 299 290 291 299 303 303 304 297 295 283 273 259 257 262 256 245 233 229 225 225 231 227 228 228 225 215 214 216 220 216 213 205 196 191 188
217 217 218 231 240 276 301 303 302 288 285 284 289 295 293 293 301 281 276 257 254 257 259 244 230 223 222 222 232 226 221 220 222 215 214 216 220 216 207 197 193 184 180
217 209 205 214 248 282 305 307 318 308 301 294 287 288 276 278 288 285 271 268 258 258 255 243 232 221 217 221 223 217 214 213 216 213 215 217 217 205 198 199 194 188 185
215 205 212 234 262 300 305 302 326 346 319 312 287 278 279 285 275 286 279 266 265 265 258 243 229 220 217 216 218 208 203 209 213 208 217 218 215 206 196 199 195 192 191
208 215 222 236 263 298 320 324 323 323 322 318 307 286 279 279 275 275 287 274 261 267 251 237 221 215 220 216 217 200 204 207 207 209 211 218 216 204 196 194 199 195 191
219 217 222 239 262 305 330 317 336 337 324 313 312 299 286 281 273 272 280 272 266 268 248 230 218 218 222 214 214 199 208 209 209 216 214 217 213 203 200 202 199 199 193
216 212 222 240 272 309 311 325 331 319 317 311 302 296 290 278 273 267 265 261 266 265 246 229 219 215 215 211 201 202 211 215 214 223 214 217 213 200 201 198 194 196 190
216 214 226 232 261 299 288 313 317 323 314 307 292 292 285 277 274 265 249 256 267 264 244 229 218 213 209 207 198 205 210 215 214 221 215 212 205 190 187 186 188 184 169
209 215 219 212 234 223 218 269 297 319 326 324 305 297 296 290 272 260 247 261 265 262 248 216 210 213 206 210 208 206 217 213 224 208 206 205 203 200 188 183 175 178 162
206 209 201 205 192 189 213 274 300 309 323 327 306 292 289 301 281 252 233 245 260 252 220 194 199 201 200 204 206 204 204 204 205 194 201 206 190 196 195 194 176 170 163
203 195 195 194 185 171 273 267 300 306 322 331 307 302 302 295 270 248 225 238 216 198 180 183 190 193 200 198 190 173 163 190 196 201 200 194 186 188 191 183 170 171 168
192 193 193 185 175 185 218 281 309 316 330 332 314 297 313 295 255 185 206 197 180 169 174 177 180 188 195 189 199 179 150 176 182 198 193 190 185 179 172 170 175 172 164
188 185 179 184 178 215 232 295 328 335 336 333 314 309 327 318 166 178 178 168 166 161 171 187 195 190 196 194 183 200 201 194 170 161 188 182 176 180 179 176 171 170 158
184 180 179 182 210 238 251 329 340 334 350 350 347 347 16 141 165 164 158 151 152 157 159 173 178 190 196 193 192 195 206 193 181 164 143 163 167 168 172 170 169 170 166
178 176 180 189 212 249 193 265 319 336 6 11 359 327 354 185 173 166 165 161 152 153 148 161 190 185 195 190 188 205 214 186 191 150 150 156 165 174 178 177 170 170 167